• In Belarus
  • List of Countries
  • For 7 days
  • Water Temperature
  • Satellite Maps
  • Weather Map
  • Weather Widgets
  • user-avatar
    Login

    Hourly Weather Kitzbuhel

    Today, 22 August, Tuesday

    Time Temperature Precipitation Wind Pressure Humidity
    00:00 +9°C° 0 mm 1 mps 681 mmHg 93%
    01:00 +9°C° 0 mm 1 mps 681 mmHg 91%
    02:00 +9°C° 0 mm 1 mps 681 mmHg 90%
    03:00 +8°C° 0 mm 1 mps 681 mmHg 89%
    04:00 +8°C° 0 mm 1 mps 680 mmHg 88%
    05:00 +9°C° 0 mm 1 mps 681 mmHg 84%
    06:00 +11°C° 0 mm 1 mps 681 mmHg 80%
    07:00 +12°C° 0 mm 1 mps 681 mmHg 74%
    08:00 +15°C° 0 mm 1 mps 681 mmHg 67%
    09:00 +18°C° 0 mm 1 mps 682 mmHg 60%
    10:00 +20°C° 0 mm 1 mps 682 mmHg 53%
    11:00 +21°C° 0 mm 1 mps 682 mmHg 50%
    12:00 +22°C° 0 mm 1 mps 681 mmHg 48%
    13:00 +22°C° 0 mm 1 mps 681 mmHg 48%
    14:00 +21°C° 0 mm 2 mps 681 mmHg 50%
    15:00 +20°C° 0 mm 2 mps 681 mmHg 52%
    16:00 +20°C° 0 mm 2 mps 680 mmHg 53%
    17:00 +18°C° 0 mm 2 mps 680 mmHg 65%
    18:00 +16°C° 0 mm 1 mps 679 mmHg 76%
    19:00 +14°C° 0 mm 1 mps 679 mmHg 87%
    20:00 +13°C° 0 mm 1 mps 679 mmHg 89%
    21:00 +13°C° 0 mm 1 mps 679 mmHg 91%
    22:00 +12°C° 0 mm 1 mps 679 mmHg 93%
    23:00 +12°C° 0 mm 1 mps 679 mmHg 94%

    Tomorrow, 23 August, Wednesday

    Time Temperature Precipitation Wind Pressure Humidity
    00:00 +11°C° 0 mm 1 mps 679 mmHg 94%
    01:00 +11°C° 0 mm 1 mps 679 mmHg 95%
    02:00 +11°C° 0 mm 1 mps 679 mmHg 94%
    03:00 +10°C° 0 mm 1 mps 678 mmHg 93%
    04:00 +10°C° 0 mm 1 mps 678 mmHg 92%
    05:00 +11°C° 0 mm 1 mps 679 mmHg 88%
    06:00 +13°C° 0 mm 1 mps 679 mmHg 83%
    07:00 +14°C° 0 mm 1 mps 679 mmHg 78%
    08:00 +16°C° 0 mm 1 mps 680 mmHg 69%
    09:00 +20°C° 0 mm 1 mps 680 mmHg 60%
    10:00 +23°C° 0 mm 1 mps 681 mmHg 51%
    11:00 +23°C° 0 mm 1 mps 681 mmHg 51%
    12:00 +24°C° 0 mm 1 mps 681 mmHg 50%
    13:00 +24°C° 0 mm 1 mps 680 mmHg 49%
    14:00 +24°C° 0.2 mm 2 mps 680 mmHg 52%
    15:00 +24°C° 0.2 mm 2 mps 680 mmHg 55%
    16:00 +24°C° 0.2 mm 2 mps 680 mmHg 57%
    17:00 +22°C° 0.5 mm 1 mps 679 mmHg 67%
    18:00 +19°C° 0.5 mm 1 mps 679 mmHg 77%
    19:00 +16°C° 0.5 mm 1 mps 679 mmHg 87%
    20:00 +15°C° 0.1 mm 1 mps 679 mmHg 87%
    21:00 +15°C° 0.1 mm 1 mps 679 mmHg 88%
    22:00 +14°C° 0.1 mm 2 mps 680 mmHg 89%
    23:00 +14°C° 0 mm 2 mps 679 mmHg 87%

    Day after tomorrow, 24 August, Thursday

    Time Temperature Precipitation Wind Pressure Humidity
    00:00 +13°C° 0 mm 2 mps 679 mmHg 85%
    01:00 +13°C° 0 mm 2 mps 679 mmHg 83%
    02:00 +13°C° 0 mm 2 mps 679 mmHg 81%
    03:00 +13°C° 0 mm 2 mps 679 mmHg 79%
    04:00 +13°C° 0 mm 2 mps 679 mmHg 77%
    05:00 +14°C° 0.1 mm 2 mps 679 mmHg 75%
    06:00 +15°C° 0.1 mm 1 mps 680 mmHg 73%
    07:00 +18°C° 0.1 mm 1 mps 680 mmHg 71%
    08:00 +20°C° 0.1 mm 1 mps 681 mmHg 63%
    09:00 +23°C° 0.1 mm 1 mps 681 mmHg 55%
    10:00 +26°C° 0.1 mm 1 mps 682 mmHg 47%
    11:00 +26°C° 0 mm 1 mps 682 mmHg 46%
    12:00 +27°C° 0 mm 1 mps 681 mmHg 44%
    13:00 +28°C° 0 mm 1 mps 681 mmHg 43%
    14:00 +27°C° 0.2 mm 1 mps 681 mmHg 48%
    15:00 +26°C° 0.2 mm 1 mps 681 mmHg 54%
    16:00 +26°C° 0.2 mm 2 mps 681 mmHg 59%
    17:00 +23°C° 2.1 mm 1 mps 680 mmHg 70%
    18:00 +21°C° 2.1 mm 1 mps 680 mmHg 80%
    19:00 +19°C° 2.1 mm 1 mps 680 mmHg 91%
    20:00 +18°C° 0.4 mm 1 mps 680 mmHg 92%
    21:00 +18°C° 0.4 mm 1 mps 680 mmHg 92%
    22:00 +16°C° 0.4 mm 1 mps 681 mmHg 93%
    23:00 +16°C° 0 mm 2 mps 680 mmHg 92%

    25 August, Friday

    Time Temperature Precipitation Wind Pressure Humidity
    00:00 +15°C° 0 mm 2 mps 680 mmHg 92%
    01:00 +14°C° 0 mm 2 mps 680 mmHg 91%
    02:00 +14°C° 0 mm 2 mps 680 mmHg 90%
    03:00 +14°C° 0 mm 2 mps 680 mmHg 89%
    04:00 +14°C° 0 mm 2 mps 680 mmHg 88%
    05:00 +15°C° 0 mm 1 mps 680 mmHg 85%
    06:00 +16°C° 0 mm 1 mps 680 mmHg 83%
    07:00 +18°C° 0 mm 1 mps 680 mmHg 80%
    08:00 +21°C° 0 mm 1 mps 681 mmHg 68%
    09:00 +24°C° 0 mm 1 mps 682 mmHg 56%
    10:00 +25°C° 0 mm 0 mps 682 mmHg 45%
    11:00 +27°C° 0 mm 1 mps 682 mmHg 43%
    12:00 +28°C° 0 mm 1 mps 682 mmHg 41%
    13:00 +29°C° 0 mm 1 mps 682 mmHg 39%
    14:00 +28°C° 0 mm 1 mps 681 mmHg 43%
    15:00 +27°C° 0 mm 1 mps 681 mmHg 48%
    16:00 +27°C° 0 mm 1 mps 681 mmHg 52%
    17:00 +24°C° 0.4 mm 1 mps 681 mmHg 63%
    18:00 +22°C° 0.4 mm 1 mps 680 mmHg 74%
    19:00 +18°C° 0.4 mm 0 mps 680 mmHg 85%
    20:00 +19°C° 0.2 mm 1 mps 680 mmHg 85%
    21:00 +19°C° 0.2 mm 1 mps 680 mmHg 85%
    22:00 +18°C° 0.2 mm 1 mps 680 mmHg 85%
    23:00 +18°C° 0 mm 1 mps 680 mmHg 84%

    26 August, Saturday

    Time Temperature Precipitation Wind Pressure Humidity
    00:00 +18°C° 0 mm 1 mps 680 mmHg 82%
    01:00 +16°C° 0 mm 1 mps 680 mmHg 81%
    02:00 +16°C° 0 mm 1 mps 680 mmHg 80%
    03:00 +16°C° 0 mm 1 mps 680 mmHg 78%
    04:00 +16°C° 0 mm 1 mps 679 mmHg 77%
    05:00 +18°C° 0 mm 1 mps 680 mmHg 75%
    06:00 +19°C° 0 mm 1 mps 680 mmHg 73%
    07:00 +20°C° 0 mm 1 mps 680 mmHg 71%
    08:00 +23°C° 0 mm 1 mps 681 mmHg 62%
    09:00 +25°C° 0 mm 1 mps 681 mmHg 53%
    10:00 +26°C° 0 mm 0 mps 682 mmHg 45%
    11:00 +28°C° 0 mm 1 mps 681 mmHg 43%
    12:00 +29°C° 0 mm 1 mps 681 mmHg 42%
    13:00 +30°C° 0 mm 1 mps 681 mmHg 40%
    14:00 +29°C° 0.1 mm 1 mps 681 mmHg 44%
    15:00 +29°C° 0.1 mm 1 mps 681 mmHg 48%
    16:00 +28°C° 0.1 mm 2 mps 680 mmHg 52%
    17:00 +26°C° 0.7 mm 1 mps 680 mmHg 62%
    18:00 +24°C° 0.7 mm 1 mps 680 mmHg 72%
    19:00 +21°C° 0.7 mm 1 mps 679 mmHg 82%
    20:00 +21°C° 0.2 mm 1 mps 679 mmHg 82%
    21:00 +20°C° 0.2 mm 1 mps 680 mmHg 82%
    22:00 +19°C° 0.2 mm 1 mps 680 mmHg 82%
    23:00 +19°C° 0.3 mm 1 mps 679 mmHg 80%

    27 August, Sunday

    Time Temperature Precipitation Wind Pressure Humidity
    00:00 +17°C° 0.3 mm 2 mps 679 mmHg 79%
    01:00 +17°C° 0.3 mm 2 mps 679 mmHg 77%
    02:00 +17°C° 0.3 mm 2 mps 679 mmHg 77%
    03:00 +16°C° 0.3 mm 2 mps 678 mmHg 77%
    04:00 +16°C° 0.3 mm 2 mps 678 mmHg 78%
    05:00 +18°C° 0 mm 1 mps 679 mmHg 76%
    06:00 +19°C° 0 mm 1 mps 679 mmHg 74%
    07:00 +20°C° 0 mm 1 mps 679 mmHg 72%
    08:00 +23°C° 0 mm 1 mps 680 mmHg 63%
    09:00 +25°C° 0 mm 1 mps 680 mmHg 54%
    10:00 +28°C° 0 mm 1 mps 681 mmHg 45%
    11:00 +28°C° 0 mm 1 mps 680 mmHg 44%
    12:00 +29°C° 0 mm 1 mps 680 mmHg 43%
    13:00 +29°C° 0 mm 1 mps 680 mmHg 42%
    14:00 +29°C° 0.3 mm 1 mps 680 mmHg 46%
    15:00 +28°C° 0.3 mm 1 mps 680 mmHg 50%
    16:00 +27°C° 0.3 mm 1 mps 679 mmHg 54%
    17:00 +25°C° 1.1 mm 1 mps 679 mmHg 63%
    18:00 +21°C° 1.1 mm 0 mps 679 mmHg 73%
    19:00 +19°C° 1.1 mm 0 mps 678 mmHg 82%
    20:00 +20°C° 0.9 mm 1 mps 679 mmHg 83%
    21:00 +20°C° 0.9 mm 1 mps 679 mmHg 84%
    22:00 +20°C° 0.9 mm 1 mps 679 mmHg 85%
    23:00 +19°C° 0.4 mm 1 mps 679 mmHg 85%
    Show more